Mandarin Grace — 9V8352 — position and weather

sailwx.info

Track history (hours):
 
Tides and Currents Weather Stations Pressure Air Temp Water Temp Dewpoint Dewpoint Depression Visibility Wind Speed Wind Dir Waves Ship Positions

Mandarin Grace

Last reported at 2014-Aug-29 23:31 UTC. Time now 2014-Aug-30 00:27 UTC.
Position N 37°12' W 032°35'.

Length 190 m; draft 12.2 m.

Type: Cargo ship. MMSI: 563862000.

Date/timePositionNaut miles runAvg speedWind from/ knotsBaromVisibWave heightAir tempDewpointWater temp
2014-Aug-29 23:31N 37°12' W 032°35'1411.3
2014-Aug-29 22:18N 37°13' W 032°18'911.3
2014-Aug-29 21:33N 37°13' W 032°07'1111.6
2014-Aug-29 20:33N 37°13' W 031°53'1111.5
2014-Aug-29 19:33N 37°14' W 031°39'1211.6
2014-Aug-29 18:31N 37°14' W 031°23'1111.2
2014-Aug-29 17:30N 37°15' W 031°09'1110.9
2014-Aug-29 16:31N 37°15' W 030°56'1111.4
2014-Aug-29 15:32N 37°16' W 030°42'1111.5
2014-Aug-29 14:33N 37°16' W 030°28'1111.1
2014-Aug-29 13:33N 37°17' W 030°14'1111.3
2014-Aug-29 12:34N 37°18' W 029°60'1111.0
2014-Aug-29 11:33N 37°18' W 029°46'1111.0
2014-Aug-29 10:33N 37°19' W 029°32'1111.1
2014-Aug-29 09:33N 37°19' W 029°18'1111.4
2014-Aug-29 08:33N 37°19' W 029°03'1211.5
2014-Aug-29 07:33N 37°20' W 028°49'1211.6
2014-Aug-29 06:32N 37°21' W 028°34'1211.4
2014-Aug-29 05:29N 37°22' W 028°19'1011.2
2014-Aug-29 04:33N 37°22' W 028°06'1111.2
2014-Aug-29 03:33N 37°22' W 027°52'1111.2
2014-Aug-29 02:33N 37°22' W 027°38'1111.0
2014-Aug-29 01:33N 37°22' W 027°24'1111.3
2014-Aug-29 00:33N 37°22' W 027°09'1211.8
2014-Aug-28 23:34N 37°22' W 026°55'1212.0
2014-Aug-28 22:33N 37°22' W 026°40'1312.8
2014-Aug-28 21:33N 37°21' W 026°23'1212.4
2014-Aug-28 20:33N 37°21' W 026°08'1212.4
2014-Aug-28 19:33N 37°22' W 025°52'1212.4
2014-Aug-28 18:33N 37°23' W 025°37'1312.8
2014-Aug-28 17:33N 37°23' W 025°20'1312.8
2014-Aug-28 16:33N 37°23' W 025°04'1312.8
2014-Aug-28 15:33N 37°23' W 024°48'1313.2
2014-Aug-28 14:33N 37°22' W 024°32'1312.6
2014-Aug-28 13:33N 37°21' W 024°16'1211.7
2014-Aug-28 12:33N 37°20' W 024°01'1111.2
2014-Aug-28 11:33N 37°19' W 023°47'1111.2
2014-Aug-28 10:33N 37°19' W 023°33'1210.8
2014-Aug-28 09:30N 37°19' W 023°19'  
2014-Aug-26 00:32N 36°11' W 009°34'1211.9
2014-Aug-25 23:33N 36°09' W 009°20'1211.7
2014-Aug-25 22:30N 36°06' W 009°05'1111.4
2014-Aug-25 21:33N 36°04' W 008°52'1211.2
2014-Aug-25 20:29N 36°02' W 008°38'1112.0
2014-Aug-25 19:33N 36°01' W 008°24'1212.3
2014-Aug-25 18:33N 35°59' W 008°09'2512.4
2014-Aug-25 16:33N 35°57' W 007°38'1312.5
2014-Aug-25 15:32N 35°57' W 007°23'1712.5
2014-Aug-25 14:10N 35°58' W 007°02'21311.8
2014-Aug-24 20:09N 36°22' W 002°39'1112.7
2014-Aug-24 19:18N 36°24' W 002°26'912.6
2014-Aug-24 18:33N 36°25' W 002°14'1312.7
2014-Aug-24 17:33N 36°28' W 001°59'1312.7
2014-Aug-24 16:33N 36°30' W 001°43'1212.3
2014-Aug-24 15:33N 36°33' W 001°28'1312.2
2014-Aug-24 14:29N 36°35' W 001°12'2512.8
2014-Aug-24 12:33N 36°39' W 000°42'1311.9
2014-Aug-24 11:29N 36°41' W 000°26'39312.2
2014-Aug-23 03:22N 37°33' E 007°42'1612.5
2014-Aug-23 02:07N 37°34' E 008°01'2012.5
2014-Aug-23 00:30N 37°36' E 008°26'1412.3
2014-Aug-22 23:21N 37°38' E 008°44'1312.0
2014-Aug-22 22:15N 37°39' E 009°01'811.9
2014-Aug-22 21:32N 37°39' E 009°12'1211.7
2014-Aug-22 20:33N 37°39' E 009°26'1211.8
2014-Aug-22 19:33N 37°39' E 009°41'1212.0
2014-Aug-22 18:33N 37°39' E 009°56'1211.9
2014-Aug-22 17:33N 37°39' E 010°11'1211.8
2014-Aug-22 16:33N 37°39' E 010°26'1212.0
2014-Aug-22 15:33N 37°39' E 010°41'1212.3
2014-Aug-22 14:33N 37°39' E 010°57'1212.0
2014-Aug-22 13:33N 37°36' E 011°12'1212.3
2014-Aug-22 12:33N 37°31' E 011°26'4711.7
2014-Aug-22 08:33N 37°13' E 012°20'1211.9
2014-Aug-22 07:33N 37°08' E 012°33'1212.1
2014-Aug-22 06:33N 37°03' E 012°47'1212.4
2014-Aug-22 05:33N 36°58' E 013°02'1312.4
2014-Aug-22 04:32N 36°54' E 013°16'1212.3
2014-Aug-22 03:33N 36°49' E 013°30'1312.5
2014-Aug-22 02:31N 36°44' E 013°45'1212.4
2014-Aug-22 01:33N 36°39' E 013°59'1212.1
2014-Aug-22 00:33N 36°34' E 014°12'1211.9
2014-Aug-21 23:33N 36°30' E 014°26'1211.7
2014-Aug-21 22:33N 36°25' E 014°40'1211.8
2014-Aug-21 21:33N 36°21' E 014°53'1211.9
2014-Aug-21 20:33N 36°19' E 015°08'1212.1
2014-Aug-21 19:33N 36°19' E 015°23'1211.9
2014-Aug-21 18:33N 36°19' E 015°38'1211.6
2014-Aug-21 17:33N 36°19' E 015°52'34312.0
2014-Aug-20 13:04N 36°25' E 022°58'3111.7
2014-Aug-20 10:28N 36°38' E 023°32'1212.6
2014-Aug-20 09:33N 36°47' E 023°42'1412.7
2014-Aug-20 08:24N 36°58' E 023°53'2412.6
2014-Aug-20 06:31N 37°18' E 024°10'2812.3
2014-Aug-20 04:16N 37°41' E 024°30'  
Track history (hours):
 
Tides and Currents Weather Stations Pressure Air Temp Water Temp Dewpoint Dewpoint Depression Visibility Wind Speed Wind Dir Waves Ship Positions

Mandarin Grace

Last reported at 2014-Aug-29 23:31 UTC. Time now 2014-Aug-30 00:27 UTC.
Position N 37°12' W 032°35'.

Length 190 m; draft 12.2 m.

Type: Cargo ship. MMSI: 563862000.

Date/timePositionNaut miles runAvg speedWind from/ knotsBaromVisibWave heightAir tempDewpointWater temp
2014-Aug-29 23:31N 37°12' W 032°35'1411.3
2014-Aug-29 22:18N 37°13' W 032°18'911.3
2014-Aug-29 21:33N 37°13' W 032°07'1111.6
2014-Aug-29 20:33N 37°13' W 031°53'1111.5
2014-Aug-29 19:33N 37°14' W 031°39'1211.6
2014-Aug-29 18:31N 37°14' W 031°23'1111.2
2014-Aug-29 17:30N 37°15' W 031°09'1110.9
2014-Aug-29 16:31N 37°15' W 030°56'1111.4
2014-Aug-29 15:32N 37°16' W 030°42'1111.5
2014-Aug-29 14:33N 37°16' W 030°28'1111.1
2014-Aug-29 13:33N 37°17' W 030°14'1111.3
2014-Aug-29 12:34N 37°18' W 029°60'1111.0
2014-Aug-29 11:33N 37°18' W 029°46'1111.0
2014-Aug-29 10:33N 37°19' W 029°32'1111.1
2014-Aug-29 09:33N 37°19' W 029°18'1111.4
2014-Aug-29 08:33N 37°19' W 029°03'1211.5
2014-Aug-29 07:33N 37°20' W 028°49'1211.6
2014-Aug-29 06:32N 37°21' W 028°34'1211.4
2014-Aug-29 05:29N 37°22' W 028°19'1011.2
2014-Aug-29 04:33N 37°22' W 028°06'1111.2
2014-Aug-29 03:33N 37°22' W 027°52'1111.2
2014-Aug-29 02:33N 37°22' W 027°38'1111.0
2014-Aug-29 01:33N 37°22' W 027°24'1111.3
2014-Aug-29 00:33N 37°22' W 027°09'1211.8
2014-Aug-28 23:34N 37°22' W 026°55'1212.0
2014-Aug-28 22:33N 37°22' W 026°40'1312.8
2014-Aug-28 21:33N 37°21' W 026°23'1212.4
2014-Aug-28 20:33N 37°21' W 026°08'1212.4
2014-Aug-28 19:33N 37°22' W 025°52'1212.4
2014-Aug-28 18:33N 37°23' W 025°37'1312.8
2014-Aug-28 17:33N 37°23' W 025°20'1312.8
2014-Aug-28 16:33N 37°23' W 025°04'1312.8
2014-Aug-28 15:33N 37°23' W 024°48'1313.2
2014-Aug-28 14:33N 37°22' W 024°32'1312.6
2014-Aug-28 13:33N 37°21' W 024°16'1211.7
2014-Aug-28 12:33N 37°20' W 024°01'1111.2
2014-Aug-28 11:33N 37°19' W 023°47'1111.2
2014-Aug-28 10:33N 37°19' W 023°33'1210.8
2014-Aug-28 09:30N 37°19' W 023°19'  
2014-Aug-26 00:32N 36°11' W 009°34'1211.9
2014-Aug-25 23:33N 36°09' W 009°20'1211.7
2014-Aug-25 22:30N 36°06' W 009°05'1111.4
2014-Aug-25 21:33N 36°04' W 008°52'1211.2
2014-Aug-25 20:29N 36°02' W 008°38'1112.0
2014-Aug-25 19:33N 36°01' W 008°24'1212.3
2014-Aug-25 18:33N 35°59' W 008°09'2512.4
2014-Aug-25 16:33N 35°57' W 007°38'1312.5
2014-Aug-25 15:32N 35°57' W 007°23'1712.5
2014-Aug-25 14:10N 35°58' W 007°02'21311.8
2014-Aug-24 20:09N 36°22' W 002°39'1112.7
2014-Aug-24 19:18N 36°24' W 002°26'912.6
2014-Aug-24 18:33N 36°25' W 002°14'1312.7
2014-Aug-24 17:33N 36°28' W 001°59'1312.7
2014-Aug-24 16:33N 36°30' W 001°43'1212.3
2014-Aug-24 15:33N 36°33' W 001°28'1312.2
2014-Aug-24 14:29N 36°35' W 001°12'2512.8
2014-Aug-24 12:33N 36°39' W 000°42'1311.9
2014-Aug-24 11:29N 36°41' W 000°26'39312.2
2014-Aug-23 03:22N 37°33' E 007°42'1612.5
2014-Aug-23 02:07N 37°34' E 008°01'2012.5
2014-Aug-23 00:30N 37°36' E 008°26'1412.3
2014-Aug-22 23:21N 37°38' E 008°44'1312.0
2014-Aug-22 22:15N 37°39' E 009°01'811.9
2014-Aug-22 21:32N 37°39' E 009°12'1211.7
2014-Aug-22 20:33N 37°39' E 009°26'1211.8
2014-Aug-22 19:33N 37°39' E 009°41'1212.0
2014-Aug-22 18:33N 37°39' E 009°56'1211.9
2014-Aug-22 17:33N 37°39' E 010°11'1211.8
2014-Aug-22 16:33N 37°39' E 010°26'1212.0
2014-Aug-22 15:33N 37°39' E 010°41'1212.3
2014-Aug-22 14:33N 37°39' E 010°57'1212.0
2014-Aug-22 13:33N 37°36' E 011°12'1212.3
2014-Aug-22 12:33N 37°31' E 011°26'4711.7
2014-Aug-22 08:33N 37°13' E 012°20'1211.9
2014-Aug-22 07:33N 37°08' E 012°33'1212.1
2014-Aug-22 06:33N 37°03' E 012°47'1212.4
2014-Aug-22 05:33N 36°58' E 013°02'1312.4
2014-Aug-22 04:32N 36°54' E 013°16'1212.3
2014-Aug-22 03:33N 36°49' E 013°30'1312.5
2014-Aug-22 02:31N 36°44' E 013°45'1212.4
2014-Aug-22 01:33N 36°39' E 013°59'1212.1
2014-Aug-22 00:33N 36°34' E 014°12'1211.9
2014-Aug-21 23:33N 36°30' E 014°26'1211.7
2014-Aug-21 22:33N 36°25' E 014°40'1211.8
2014-Aug-21 21:33N 36°21' E 014°53'1211.9
2014-Aug-21 20:33N 36°19' E 015°08'1212.1
2014-Aug-21 19:33N 36°19' E 015°23'1211.9
2014-Aug-21 18:33N 36°19' E 015°38'1211.6
2014-Aug-21 17:33N 36°19' E 015°52'34312.0
2014-Aug-20 13:04N 36°25' E 022°58'3111.7
2014-Aug-20 10:28N 36°38' E 023°32'1212.6
2014-Aug-20 09:33N 36°47' E 023°42'1412.7
2014-Aug-20 08:24N 36°58' E 023°53'2412.6
2014-Aug-20 06:31N 37°18' E 024°10'2812.3
2014-Aug-20 04:16N 37°41' E 024°30'  

Dump ship's entire track history